This is the latest recevied weather packets stored in our database for station/object KD8BMB. If no packets are shown the sender has not sent any weather packets the latest 10 day(s).
| Time | Temp. | Humidity | Pressure | Rain* | Wind** | Luminosity | Snow |
|---|---|---|---|---|---|---|---|
| 1778070808 | 5° C | 74% | 1012.1 hPa | 0 mm | - | 201 W/m² | - |
| 1778070505 | 5.56° C | 75% | 1011.9 hPa | 0 mm | - | 193 W/m² | - |
| 1778070202 | 5° C | 77% | 1011.8 hPa | 0 mm | - | 121 W/m² | - |
| 1778069901 | 4.44° C | 78% | 1011.8 hPa | 0 mm | - | 166 W/m² | - |
| 1778069597 | 4.44° C | 77% | 1011.5 hPa | 0 mm | - | 94 W/m² | - |
| 1778069294 | 4.44° C | 78% | 1011.7 hPa | 0 mm | - | 93 W/m² | - |
| 1778068992 | 4.44° C | 79% | 1011.5 hPa | 0 mm | - | 122 W/m² | - |
| 1778068689 | 3.89° C | 80% | 1011.7 hPa | 0 mm | - | 118 W/m² | - |
| 1778068387 | 3.89° C | 80% | 1011.5 hPa | 0 mm | - | 88 W/m² | - |
| 1778068085 | 3.89° C | 84% | 1011.5 hPa | 0 mm | - | 81 W/m² | - |
| 1778067783 | 3.89° C | 84% | 1011.4 hPa | 0 mm | - | 60 W/m² | - |
| 1778067481 | 3.89° C | 85% | 1011.5 hPa | 0 mm | - | 51 W/m² | - |
| 1778067178 | 3.89° C | 85% | 1011.5 hPa | 0 mm | - | 59 W/m² | - |
| 1778066875 | 3.89° C | 86% | 1011.3 hPa | 0 mm | - | 42 W/m² | - |
| 1778066572 | 3.89° C | 86% | 1011.4 hPa | 0 mm | - | 42 W/m² | - |
| 1778066269 | 3.33° C | 87% | 1011.3 hPa | 0 mm | - | 39 W/m² | - |
| 1778065967 | 3.33° C | 88% | 1011.1 hPa | 0 mm | - | 36 W/m² | - |
| 1778065664 | 2.78° C | 90% | 1010.7 hPa | 0 mm | - | 27 W/m² | - |
| 1778065362 | 2.78° C | 91% | 1011.1 hPa | 0 mm | - | 23 W/m² | - |
| 1778065058 | 2.22° C | 92% | 1010.8 hPa | 0 mm | - | 19 W/m² | - |
| 1778064755 | 2.22° C | 92% | 1010.8 hPa | 0 mm | - | 16 W/m² | - |
| 1778064453 | 2.22° C | 92% | 1010.8 hPa | 0 mm | - | 13 W/m² | - |
| 1778064150 | 2.22° C | 91% | 1010.7 hPa | 0 mm | - | 10 W/m² | - |
| 1778063847 | 2.22° C | 90% | 1010.4 hPa | 0 mm | - | 9 W/m² | - |
| 1778063545 | 2.78° C | 89% | 1010.4 hPa | 0 mm | - | 5 W/m² | - |
* Rain latest hour (hover to see other rain measurements)
** Current wind speed in m/s (hover to see current wind gust speed)